Location: Observatoire de Paris
(48.8363°N, 2.3365°E)
Time: 17:15:05
(UTC+01:00)

Vanguard 3 - Pass Details

Date: 07 August 2021
Orbit: 510 x 3260 km, 33.4° (Epoch: 23 September)

Event Time Altitude Azimuth Distance (km) Brightness Sun altitude
Rises 23:49:53 0° 274° (W) 6,802 12.1 -23.1°
Reaches altitude 10° 23:56:11 10° 260° (W) 6,046 11.6 -23.4°
Maximum altitude 00:07:51 20° 223° (SW) 5,373 11.0 -23.9°
Enters shadow 00:13:01 18° 204° (SSW) 5,458 10.9 -24.0°
